Location: Centerville
(32.8776°N, 96.6203°W)
Time: 16:06:01
(UTC+00:00)

SJ 16-02 - Pass Details

Date: 17 June 2021
Orbit: 606 x 616 km, 75.0° (Epoch: 27 July)

Event Time Altitude Azimuth Distance (km) Brightness Sun altitude
Rises 06:20:24 0° 3° (N) 2,866 5.8 -33.7°
Reaches altitude 10° 06:23:15 10° 22° (NNE) 1,958 4.6 -33.7°
Enters shadow 06:24:49 16° 41° (NE) 1,609 3.9 -33.7°
